クリステンセン彗星

495P/Christensen (2025)

English version
Home page
Updated on November 26, 2024

---------------------------------------------------------------------

・ プロフィール

符号 495P/2024 RU145
検出日 2024年9月8日
検出光度 21.0等
検出者 Mt. Lemmon Survey, P. VanWylen, J. Maikner

・ 写真集

・ 軌道要素

Epoch 2024 Oct. 17.0 TT = JDT 2460600.5                                         
T 2025 Oct. 22.50377 TT                                 Rudenko                 
q   3.4601836            (2000.0)            P               Q                  
n   0.09511380     Peri.  141.33932     +0.23261369     -0.88067634             
a   4.7530645      Node   291.62475     +0.74495986     +0.43412110             
e   0.2720100      Incl.   26.35416     +0.62524049     -0.18959972             
P  10.4                                                                         
From 64 observations 2016 Jan. 2-2024 Oct. 3, mean residual 0".7.               

・ 光度変化

        m1 = 12.0 + 5 logΔ + 10.0 log r

---------------------------------------------------------------------

軌道要素はM.P.E.C. 2024-U34に掲載されたものです。
光度グラフはComet for Windowsで作成したものです。

---------------------------------------------------------------------

Copyright(C) Seiichi Yoshida (comet@aerith.net). All rights reserved.